Temperature
22 21 21 20 19 19 20 21 22 21 21 21 21 20 20 19 19 19 19 19 19 19 19 18 18 18 18 18 18 18 18 18 18 18 18 18 18 18 18 18 18 18 18 18 18 18 18 18 18
22 21 21 20 19 19 20 22 22 21 21 21 21 20 19 18 18 19 19 19 19 19 18 18 18 18 18 18 18 18 18 18 18 18 18 18 18 18 18 18 18 18 18 18 18 18 18 18 18
22 21 21 19 20 20 21 22 21 21 21 21 21 20 19 18 19 19 19 19 19 19 18 18 18 18 18 18 18 18 18 18 18 18 18 18 18 18 18 18 18 18 18 18 18 18 18 18 18
22 21 21 20 21 22 22 22 22 22 21 21 20 19 19 19 19 19 19 19 19 19 18 18 18 18 18 18 18 18 18 18 18 18 18 18 18 18 18 18 18 18 18 18 18 18 18 18 18
22 22 20 20 22 23 23 23 22 21 21 21 20 19 19 19 19 19 19 19 19 19 19 19 18 18 18 18 18 18 18 18 19 19 19 18 18 18 18 18 18 18 18 18 18 18 18 18 18
22 20 20 21 22 23 23 23 22 21 21 21 20 19 19 19 19 19 19 19 19 19 19 19 18 18 18 18 18 18 18 19 19 19 19 18 18 18 18 18 18 18 18 18 18 18 18 18 18
22 20 21 22 22 23 23 23 22 21 21 21 20 19 19 19 19 19 19 19 19 19 19 19 19 19 18 18 18 18 18 18 19 18 19 19 18 18 18 18 18 18 18 18 18 18 18 18 18
23 20 22 21 22 23 23 23 22 22 21 21 21 19 19 19 19 19 19 19 19 19 19 19 19 19 19 18 18 18 18 18 18 18 18 18 18 18 18 18 18 18 18 18 18 18 18 18 18
24 21 21 22 22 23 23 22 22 22 21 21 21 21 20 20 19 19 19 19 19 19 19 19 19 19 19 19 18 18 18 18 18 18 18 18 18 18 18 18 18 18 18 18 18 18 18 18 18
23 21 23 23 23 23 23 23 22 22 21 21 20 20 20 20 20 19 19 19 19 19 19 19 19 19 19 19 18 18 18 18 18 18 18 18 18 18 18 18 18 18 18 18 18 18 18 18 18
23 23 24 24 24 24 23 23 23 22 21 21 21 20 20 20 20 19 19 19 19 19 19 19 19 19 19 19 19 18 18 18 18 18 18 18 18 18 18 18 18 18 18 18 18 18 18 18 18
24 24 25 25 25 24 23 23 22 22 22 22 22 21 20 20 20 20 20 20 19 19 19 19 19 19 19 19 18 18 18 18 18 18 18 18 18 18 18 18 18 18 18 18 18 18 18 18 18
24 24 25 25 25 24 24 23 22 22 23 22 21 21 21 20 20 20 20 20 20 19 19 19 19 19 19 19 19 18 18 18 18 18 18 18 18 18 18 18 18 18 18 18 18 18 18 18 18
25 24 24 24 24 24 23 23 23 22 22 22 21 21 21 21 20 20 20 20 20 20 19 19 19 19 19 19 19 18 18 18 18 18 18 18 18 18 18 18 18 18 18 18 18 18 18 18 18
25 24 24 24 24 24 24 23 22 22 22 21 21 21 21 21 21 21 20 20 20 20 19 19 19 19 19 19 19 18 18 18 18 18 18 18 18 18 18 18 18 18 18 18 18 18 18 18 17
24 23 23 24 24 24 23 22 22 22 22 21 21 21 21 21 21 21 21 21 20 20 20 19 19 19 19 19 19 18 18 18 18 18 18 18 18 18 18 18 18 18 18 18 18 18 18 17 17
23 23 23 24 24 24 23 22 22 22 22 21 21 21 21 21 21 21 21 21 20 20 20 20 20 19 19 19 19 18 18 18 18 18 18 18 18 18 18 18 18 18 18 18 18 18 18 17 17
23 23 23 24 24 24 23 22 22 22 22 21 21 21 21 21 21 21 21 21 21 20 20 20 20 19 19 19 19 18 18 18 18 18 18 18 18 18 18 18 18 18 18 18 18 17 17 17 17
24 24 24 24 24 23 23 22 22 22 22 21 21 21 21 22 22 21 21 21 21 20 20 20 20 19 19 19 19 19 18 18 18 18 18 18 18 18 18 18 18 18 18 18 18 17 17 17 17
24 24 24 24 24 23 22 22 22 22 22 22 22 21 22 22 22 22 21 21 21 21 20 20 20 20 19 19 19 19 18 18 18 18 18 18 18 18 18 18 18 18 18 18 17 17 17 17 17
24 24 24 23 23 23 23 22 22 22 22 22 22 22 22 22 22 22 21 21 21 21 21 20 20 20 19 19 19 19 18 18 18 18 18 18 18 18 18 18 18 18 18 18 17 17 17 17 17
24 25 24 24 22 21 22 21 22 21 21 21 21 22 22 22 22 22 22 21 21 21 21 20 20 20 19 19 19 19 19 19 18 18 18 18 18 18 18 18 18 18 18 18 17 17 17 17 17
24 24 24 23 21 21 21 21 21 20 21 21 21 22 22 22 22 22 22 22 22 21 21 20 20 20 20 19 19 19 19 19 18 18 18 18 18 18 18 18 18 18 18 17 17 17 17 17 17
24 23 22 20 20 21 21 21 21 20 21 21 22 22 22 22 23 23 23 22 22 21 21 20 20 20 20 19 19 19 19 19 18 18 18 18 18 18 18 18 18 18 17 17 17 17 17 17 17
23 21 21 21 20 20 20 21 21 22 22 22 22 22 23 23 22 22 22 22 22 22 21 21 20 20 20 20 19 19 19 19 19 18 18 18 18 18 18 18 18 18 18 17 17 17 17 17 17
22 22 21 22 21 20 20 21 21 22 22 23 23 23 23 23 23 23 23 23 22 22 21 21 21 20 20 20 20 19 19 19 19 19 18 18 18 18 18 18 18 18 18 17 17 17 17 17 17
23 21 21 19 20 20 20 20 21 22 22 22 22 22 22 23 23 23 23 23 22 22 22 21 21 20 20 20 20 19 19 19 19 19 18 18 18 18 18 18 18 18 18 18 17 17 17 17 17
22 20 18 19 20 21 22 21 21 22 22 21 21 21 22 23 23 23 23 23 23 22 22 21 21 21 20 20 20 20 19 19 19 19 19 18 18 18 18 18 18 18 18 18 17 17 17 17 17
22 20 18 17 19 20 21 21 22 21 21 21 21 21 22 23 23 23 23 23 23 22 22 22 21 21 21 20 20 20 20 19 19 19 19 19 18 18 18 18 18 18 18 18 17 17 17 17 17
23 21 19 20 19 18 19 21 22 21 20 20 21 22 22 23 23 23 23 22 22 22 22 22 22 21 21 20 20 20 20 19 19 19 19 19 19 18 18 18 18 18 18 18 18 17 17 17 17
Wind_Speed
9 7 3 1 4 5 2 2 1 2 3 2 4 4 5 3 1 2 1 3 3 2 2 4 7 8 9 9 10 10 10 11 11 11 11 12 12 11 11 12 13 14 14 15 15 15 15 15 15
7 5 1 2 4 3 3 2 2 2 3 3 4 5 5 3 2 3 1 2 3 3 3 5 7 8 9 9 9 10 10 10 10 10 11 12 11 11 12 12 13 14 14 14 15 15 15 14 14
7 3 2 4 3 2 1 0 3 5 3 2 3 4 3 2 2 2 2 4 4 3 3 5 7 8 8 8 9 9 9 9 10 10 10 10 11 12 12 12 13 14 14 14 14 14 14 14 14
3 1 3 4 3 1 3 3 4 5 3 4 3 4 3 2 2 3 5 5 4 2 3 6 7 7 7 8 8 9 9 9 9 9 9 10 10 11 12 12 13 13 13 14 13 13 13 13 14
2 3 5 4 3 2 2 3 3 3 3 4 4 4 4 4 5 6 6 5 4 2 3 5 6 7 7 7 7 7 8 9 9 8 9 9 10 11 11 12 12 12 13 13 13 12 12 13 13
3 4 4 2 2 3 3 3 4 5 5 4 4 4 3 2 5 6 5 4 4 3 3 4 5 6 6 6 6 7 7 8 8 8 8 9 10 10 11 11 11 11 11 11 11 11 11 11 11
3 4 2 1 1 2 2 2 3 4 4 3 4 4 2 1 3 5 5 5 4 4 3 2 2 3 5 5 5 6 7 7 7 8 8 9 9 9 10 10 10 10 10 10 10 9 9 9 9
3 4 2 1 2 1 3 3 3 4 4 4 4 5 3 3 5 7 6 6 4 4 3 2 2 2 2 2 5 5 6 7 7 7 8 8 8 8 8 8 8 8 8 8 8 8 7 7 7
3 4 1 2 4 2 4 4 2 3 6 3 4 4 4 8 8 7 5 4 3 2 2 2 2 2 2 2 3 4 5 6 5 6 6 6 5 5 5 6 7 7 7 6 6 7 6 6 6
4 2 4 4 5 5 5 5 4 4 5 4 6 7 9 9 8 7 5 3 2 1 1 1 1 1 2 2 3 3 3 4 4 4 4 4 4 4 4 5 5 5 5 5 5 5 5 5 4
4 4 2 2 5 7 6 5 4 7 3 4 8 10 10 9 7 6 5 4 3 2 1 1 0 1 2 2 3 2 2 3 3 4 4 3 3 3 3 2 2 2 3 3 3 4 3 4 3
3 1 2 3 5 6 7 5 5 4 4 6 10 12 10 9 8 7 6 4 3 3 2 1 1 2 2 2 2 2 2 2 2 2 3 3 2 2 2 1 1 1 2 2 3 3 3 3 3
3 1 2 5 7 6 7 5 4 1 4 9 10 10 9 9 7 6 5 4 4 3 3 2 2 2 2 2 2 2 2 2 2 1 2 3 3 2 2 2 2 1 2 2 2 2 3 3 3
3 5 5 5 6 4 6 4 4 2 7 9 9 8 8 8 7 6 5 5 5 4 4 3 3 3 3 3 2 2 2 2 2 1 1 2 3 2 2 2 1 1 2 2 2 2 3 3 3
5 6 6 3 4 3 6 3 1 5 9 8 7 7 6 6 6 7 7 6 6 5 4 4 4 3 3 3 2 2 2 2 1 1 1 2 3 3 3 2 2 1 2 3 3 3 3 3 3
5 5 3 1 2 4 6 2 2 7 9 7 6 6 6 5 6 6 6 6 5 5 4 4 4 4 4 3 2 2 2 2 1 1 2 2 3 3 3 3 2 2 3 3 3 3 3 3 3
4 2 2 2 2 4 4 3 3 7 9 8 7 6 6 6 5 5 6 6 6 6 5 4 4 4 4 3 3 3 2 2 1 2 2 2 3 3 4 3 2 3 3 2 3 3 3 3 4
3 3 2 3 2 4 3 3 3 8 9 8 7 7 6 7 8 6 6 6 6 5 5 4 4 4 4 4 3 3 3 2 2 2 2 3 3 3 4 3 2 3 3 2 3 4 3 3 4
6 5 3 3 2 3 4 4 5 7 8 8 7 7 8 8 6 5 5 6 6 5 5 5 5 5 5 3 3 2 1 1 1 1 2 3 3 4 4 2 2 2 3 3 3 4 5 3 3
4 3 2 0 1 3 2 3 4 8 11 11 11 10 9 7 5 5 6 6 6 7 6 6 5 5 5 3 3 2 2 1 1 1 2 2 3 3 3 3 2 3 3 3 3 3 3 2 2
3 5 5 4 2 4 3 4 2 4 5 6 7 8 8 10 9 7 7 7 6 7 7 7 6 6 5 5 4 3 3 2 2 1 1 1 2 2 3 3 3 3 3 3 3 4 4 3 1
4 5 6 6 4 1 2 2 6 4 4 7 8 8 9 9 8 8 8 7 8 8 7 6 6 6 5 6 5 4 3 2 2 1 1 1 1 2 3 3 3 3 3 4 3 3 3 3 2
4 3 5 5 5 2 2 1 7 1 5 9 10 11 10 10 10 10 10 9 8 7 7 6 6 5 5 6 6 5 3 2 1 1 2 1 1 1 1 3 3 3 3 3 3 3 3 2 2
7 7 8 6 5 1 2 2 6 5 8 7 9 10 10 10 10 9 8 7 7 7 7 7 6 5 5 6 5 5 5 4 4 2 2 1 0 1 0 2 2 2 3 3 3 3 4 3 3
6 7 4 4 3 4 2 3 8 8 7 9 10 10 10 10 10 9 9 9 9 9 8 8 8 6 6 6 5 5 6 6 5 4 3 2 1 1 1 1 1 2 2 3 3 3 3 3 3
6 9 8 5 5 4 1 5 8 6 5 5 6 6 7 9 10 10 11 10 10 10 9 9 8 7 7 6 6 5 5 5 4 4 4 3 3 2 2 2 2 2 2 3 3 2 2 2 3
7 4 6 7 3 1 4 6 8 3 2 1 3 5 7 8 9 10 10 10 10 10 10 10 9 7 7 6 5 4 5 5 4 4 3 3 2 2 2 2 2 2 2 2 3 2 2 2 2
6 9 6 7 6 3 4 5 5 6 5 3 4 6 6 7 7 8 8 9 9 10 9 9 9 8 7 6 6 5 5 5 4 4 4 4 3 2 2 2 2 2 2 2 2 2 2 2 1
5 5 6 5 5 7 4 7 6 8 7 7 7 7 7 8 8 8 8 8 8 8 9 9 8 7 7 7 6 5 5 4 4 4 4 3 3 3 3 3 2 2 2 2 2 2 2 2 1
5 7 8 6 4 5 5 7 4 5 5 6 6 5 6 6 7 7 7 7 8 8 9 9 9 8 8 7 6 5 5 5 4 4 4 3 3 3 3 2 2 2 2 2 3 2 2 2 2
Wind_Direction
155 147 143 124 53 48 12 341 60 49 47 49 72 85 95 84 129 167 307 120 117 113 131 128 116 111 111 112 112 111 113 112 111 109 109 111 110 113 114 115 114 113 112 114 115 114 114 114 114
149 156 151 63 72 51 333 343 64 60 117 115 72 67 67 57 56 108 121 131 120 132 129 124 117 116 116 114 112 111 110 109 109 107 103 109 109 113 114 114 114 113 112 114 115 114 116 116 117
161 177 90 67 79 147 211 65 104 86 86 59 60 57 69 73 99 150 163 133 109 114 129 136 125 121 120 116 117 115 113 113 110 107 105 107 109 109 112 112 114 113 113 114 116 114 115 117 119
157 78 58 62 43 237 186 163 129 115 62 44 75 59 43 48 134 148 133 124 116 121 132 139 132 126 126 122 121 123 125 123 118 114 112 110 110 111 113 115 116 115 115 115 116 115 114 116 119
101 80 53 36 3 5 91 127 117 102 77 60 73 73 31 5 83 113 120 120 122 118 126 136 137 131 126 123 124 127 127 125 120 118 116 115 114 114 116 117 117 117 116 116 117 116 115 116 118
62 67 67 34 9 37 74 95 103 91 92 86 82 77 39 41 90 116 113 108 113 109 98 119 137 135 128 126 125 126 128 126 122 122 120 118 118 118 118 119 120 120 119 119 119 118 116 117 120
95 81 98 106 70 69 128 95 93 105 100 106 111 90 70 57 109 112 99 94 92 89 84 76 91 115 128 133 132 129 130 129 125 122 121 122 123 124 123 123 125 124 123 123 122 121 121 120 121
135 95 63 77 134 138 129 102 84 97 104 112 102 124 167 177 111 95 84 81 78 70 61 56 55 60 85 124 137 129 131 131 128 127 127 125 125 127 126 125 127 127 127 127 128 129 128 122 120
117 72 123 187 166 162 127 111 107 79 102 92 85 122 139 125 112 99 85 72 73 82 44 40 46 46 61 114 132 119 121 125 127 131 129 118 108 112 118 124 132 131 131 130 131 133 128 121 118
106 123 211 193 167 149 138 127 133 98 101 86 79 86 110 124 129 130 134 138 144 148 78 48 45 40 50 101 95 85 90 95 97 110 110 103 105 106 114 121 128 131 130 129 128 129 126 117 108
145 177 201 134 141 130 129 122 111 122 137 161 146 139 136 141 146 154 161 164 180 176 151 120 74 67 76 77 84 83 82 83 89 107 116 117 106 105 97 102 97 96 106 105 108 104 111 117 119
141 226 154 131 126 125 134 125 112 144 188 155 147 144 144 153 165 172 173 175 161 150 173 147 121 91 92 99 89 91 88 82 96 124 132 129 125 121 122 122 105 85 99 104 101 103 104 106 117
94 64 76 100 103 107 104 107 124 123 107 118 126 135 149 162 173 177 174 167 157 163 171 158 138 131 111 108 103 104 108 112 118 127 133 138 133 125 121 119 118 120 121 119 114 106 104 102 107
106 82 73 80 91 91 103 91 94 139 124 127 137 149 162 170 171 165 165 168 172 178 172 154 150 147 125 124 128 112 116 125 126 121 125 139 141 134 124 108 96 108 120 118 119 115 105 102 103
84 75 52 52 83 107 103 67 192 156 135 143 155 160 168 180 176 180 183 181 182 180 166 160 162 144 139 142 142 127 127 129 123 148 142 148 150 153 138 114 106 108 111 104 101 100 96 96 96
63 73 81 267 111 131 120 220 221 152 148 161 173 175 179 191 195 195 187 183 181 172 168 175 168 148 149 142 127 120 118 125 131 134 126 139 153 153 136 121 112 107 105 108 112 109 99 96 99
46 109 173 225 175 146 144 222 201 160 160 174 186 189 190 196 204 203 189 183 179 177 170 163 153 145 143 126 106 101 104 109 121 124 124 129 142 143 136 129 123 114 104 103 115 104 110 110 103
195 174 191 205 205 151 175 224 191 177 177 186 191 194 195 202 210 199 188 179 172 168 161 155 143 132 118 101 89 78 77 78 89 107 126 131 132 131 133 126 121 116 104 96 104 105 101 112 112
160 162 194 221 193 160 201 217 200 190 189 194 199 201 205 212 210 186 178 169 157 158 156 155 147 144 132 119 114 108 96 80 85 95 120 137 134 131 136 132 116 112 114 117 117 112 106 98 105
144 154 193 43 132 151 199 261 222 200 202 200 201 203 205 202 195 189 175 168 169 171 170 164 164 160 158 147 133 130 122 103 91 80 94 123 139 145 146 144 137 129 124 117 117 116 112 110 108
182 185 188 166 83 56 75 331 248 227 219 207 205 201 198 196 194 193 182 180 176 180 180 180 177 170 164 148 118 97 77 60 64 81 80 84 122 131 134 143 142 140 140 140 142 141 137 145 127
228 211 160 138 119 344 101 277 282 238 234 221 214 207 206 201 193 188 183 184 187 190 182 176 173 170 164 154 150 151 154 167 189 163 138 81 111 132 146 151 149 146 146 148 157 146 143 141 152
191 124 117 113 114 72 22 162 288 257 240 238 224 214 207 198 192 193 191 187 189 183 178 175 168 170 165 164 166 161 162 168 138 116 118 85 44 76 126 148 150 152 157 161 156 146 147 147 155
124 77 60 54 70 31 248 177 280 232 225 231 223 216 207 197 194 195 189 174 176 173 172 170 169 177 171 170 169 170 173 166 154 157 160 143 59 24 86 152 154 158 163 168 167 165 162 161 159
100 97 49 15 13 257 237 201 255 251 230 219 221 213 203 194 190 188 183 181 178 176 178 176 174 181 177 174 177 179 178 175 178 180 179 173 182 208 222 171 163 170 171 170 161 162 172 171 173
167 141 155 181 211 269 271 236 259 273 261 233 215 201 192 191 189 190 189 188 186 182 179 175 180 187 182 180 184 178 173 176 184 185 179 184 197 209 206 174 177 184 170 165 155 159 176 171 180
140 161 157 132 139 152 276 286 302 297 303 267 183 177 189 192 189 190 189 187 185 182 181 181 182 184 185 185 179 176 179 180 185 184 179 186 197 202 190 180 178 179 169 161 154 162 172 167 182
138 142 106 122 146 215 279 272 255 261 245 231 202 196 198 191 185 184 187 188 186 182 180 178 180 183 181 178 183 188 190 189 182 174 183 184 190 189 185 189 184 179 159 152 148 150 154 152 177
112 103 108 117 147 157 220 263 232 225 215 206 211 203 193 189 185 185 185 184 180 172 173 177 178 176 180 182 183 184 186 184 178 179 190 186 184 187 195 184 182 184 171 154 142 142 139 145 152
151 156 146 149 193 173 177 258 279 229 214 198 205 202 188 184 182 177 173 168 172 176 179 181 181 184 187 180 175 183 175 169 178 189 195 183 185 190 196 185 176 186 187 163 156 159 150 151 158
Height
1483 1484 1485 1486 1489 1499 1501 1494 1489 1489 1489 1490 1489 1490 1491 1494 1497 1501 1497 1495 1495 1495 1495 1495 1496 1497 1497 1498 1499 1500 1501 1502 1503 1504 1505 1506 1507 1508 1509 1510 1511 1512 1513 1515 1517 1518 1520 1521 1523
1484 1485 1487 1488 1496 1510 1504 1492 1491 1490 1490 1490 1491 1491 1492 1494 1494 1495 1495 1496 1496 1497 1497 1497 1498 1498 1499 1500 1501 1502 1503 1504 1505 1506 1507 1508 1509 1509 1511 1512 1513 1515 1516 1518 1519 1521 1522 1523 1525
1485 1486 1488 1490 1500 1507 1501 1492 1491 1491 1491 1491 1492 1493 1494 1495 1495 1495 1496 1496 1497 1498 1498 1499 1500 1500 1501 1502 1503 1504 1505 1506 1507 1508 1509 1510 1511 1512 1513 1514 1516 1517 1519 1520 1522 1523 1524 1525 1527
1486 1488 1489 1495 1500 1496 1493 1491 1490 1491 1492 1492 1493 1496 1496 1498 1497 1497 1497 1498 1498 1499 1500 1501 1501 1502 1503 1504 1505 1506 1507 1508 1509 1510 1511 1512 1513 1515 1516 1517 1518 1520 1521 1523 1524 1526 1527 1528 1530
1486 1488 1494 1501 1498 1492 1490 1491 1491 1492 1493 1494 1495 1498 1499 1499 1499 1499 1499 1499 1500 1500 1501 1502 1502 1503 1504 1505 1506 1507 1509 1510 1511 1512 1513 1515 1516 1517 1518 1520 1521 1522 1524 1525 1527 1528 1530 1531 1533
1487 1489 1503 1508 1499 1493 1492 1492 1493 1493 1495 1496 1497 1499 1501 1501 1501 1501 1501 1502 1502 1503 1503 1504 1504 1505 1506 1507 1508 1509 1510 1511 1513 1514 1515 1516 1518 1519 1521 1522 1523 1525 1526 1528 1530 1531 1532 1534 1536
1489 1494 1502 1502 1500 1496 1494 1494 1494 1495 1496 1498 1498 1500 1502 1503 1503 1504 1504 1504 1505 1505 1505 1506 1506 1507 1508 1509 1510 1510 1512 1513 1514 1515 1517 1518 1520 1521 1523 1524 1526 1527 1529 1530 1532 1533 1535 1537 1538
1488 1494 1500 1502 1500 1498 1495 1495 1496 1496 1498 1499 1500 1501 1503 1505 1505 1506 1506 1507 1507 1508 1508 1508 1509 1509 1509 1510 1511 1512 1513 1514 1516 1517 1518 1520 1521 1523 1524 1526 1528 1529 1531 1532 1534 1536 1537 1539 1540
1489 1498 1505 1500 1499 1496 1494 1496 1498 1499 1499 1501 1501 1502 1504 1506 1507 1508 1509 1509 1510 1510 1510 1511 1511 1510 1510 1510 1512 1513 1514 1516 1517 1518 1520 1521 1523 1524 1526 1528 1530 1531 1533 1534 1536 1537 1539 1540 1542
1489 1501 1497 1492 1491 1493 1494 1496 1498 1500 1501 1502 1503 1505 1506 1507 1508 1509 1510 1511 1511 1512 1513 1513 1513 1512 1512 1512 1513 1515 1516 1517 1518 1519 1521 1523 1524 1526 1528 1530 1531 1533 1534 1536 1537 1538 1540 1541 1543
1488 1493 1489 1489 1490 1491 1494 1497 1499 1500 1503 1503 1503 1506 1507 1509 1510 1511 1512 1513 1514 1515 1515 1515 1515 1515 1515 1515 1516 1517 1518 1519 1520 1521 1523 1524 1526 1528 1530 1531 1533 1534 1536 1537 1538 1539 1541 1542 1544
1488 1488 1488 1489 1490 1492 1495 1498 1500 1501 1502 1503 1505 1506 1508 1510 1511 1513 1514 1515 1516 1517 1517 1517 1518 1518 1518 1518 1519 1520 1520 1521 1522 1523 1525 1526 1528 1529 1531 1533 1534 1536 1537 1538 1539 1540 1542 1543 1544
1488 1489 1489 1490 1492 1494 1496 1499 1501 1503 1504 1505 1507 1509 1510 1511 1512 1514 1516 1517 1518 1518 1519 1519 1520 1520 1521 1521 1521 1522 1523 1524 1524 1525 1527 1528 1529 1531 1532 1534 1535 1537 1538 1539 1541 1542 1543 1544 1545
1488 1490 1492 1493 1495 1497 1499 1502 1503 1504 1505 1507 1509 1510 1511 1513 1514 1515 1516 1517 1519 1520 1521 1521 1522 1523 1523 1524 1524 1525 1526 1526 1526 1527 1528 1529 1530 1532 1533 1535 1537 1538 1539 1541 1542 1543 1544 1545 1546
1489 1493 1497 1497 1497 1499 1501 1506 1504 1504 1506 1508 1510 1512 1513 1514 1515 1516 1517 1519 1520 1521 1522 1523 1524 1525 1525 1526 1527 1527 1528 1528 1529 1529 1530 1531 1532 1534 1535 1536 1538 1539 1540 1541 1542 1543 1545 1546 1547
1492 1500 1507 1500 1498 1500 1505 1512 1504 1505 1506 1509 1510 1512 1514 1515 1516 1517 1519 1520 1521 1523 1523 1524 1525 1526 1527 1528 1529 1529 1530 1530 1531 1532 1533 1533 1534 1535 1536 1538 1539 1540 1541 1542 1543 1544 1545 1546 1547
1502 1510 1510 1504 1499 1499 1504 1509 1504 1505 1506 1508 1510 1512 1513 1515 1516 1518 1519 1521 1522 1523 1524 1525 1526 1528 1528 1529 1530 1531 1531 1532 1533 1534 1534 1535 1536 1537 1538 1539 1540 1541 1542 1543 1544 1544 1545 1546 1547
1509 1509 1508 1506 1500 1500 1504 1505 1502 1503 1505 1507 1509 1511 1512 1514 1515 1517 1519 1521 1523 1524 1525 1526 1527 1528 1529 1530 1531 1532 1533 1533 1534 1535 1536 1537 1537 1539 1539 1540 1541 1542 1543 1544 1544 1545 1546 1546 1547
1496 1503 1506 1503 1498 1501 1504 1504 1502 1502 1504 1506 1507 1509 1511 1512 1514 1517 1519 1521 1522 1524 1525 1527 1528 1529 1530 1531 1531 1533 1533 1534 1535 1536 1537 1538 1538 1539 1540 1541 1542 1542 1543 1544 1545 1545 1546 1546 1547
1495 1503 1505 1502 1497 1501 1505 1505 1501 1501 1501 1502 1504 1506 1508 1510 1513 1515 1517 1519 1521 1523 1525 1526 1528 1529 1531 1532 1533 1534 1535 1535 1536 1537 1538 1538 1539 1539 1540 1541 1542 1543 1544 1544 1545 1545 1546 1547 1547
1497 1501 1502 1504 1501 1501 1506 1510 1504 1500 1500 1501 1502 1503 1506 1508 1510 1513 1515 1518 1520 1522 1524 1526 1527 1529 1530 1532 1533 1534 1535 1536 1537 1538 1538 1539 1540 1540 1541 1542 1542 1543 1544 1544 1545 1546 1546 1547 1548
1499 1491 1494 1499 1509 1517 1512 1525 1508 1502 1500 1499 1500 1501 1503 1505 1508 1510 1513 1516 1518 1521 1523 1525 1527 1529 1531 1532 1533 1534 1535 1536 1537 1538 1538 1539 1540 1540 1541 1541 1542 1543 1544 1544 1545 1545 1546 1547 1547
1491 1488 1493 1500 1510 1519 1518 1524 1514 1503 1502 1497 1496 1497 1499 1502 1505 1507 1510 1513 1517 1520 1522 1525 1527 1529 1530 1532 1533 1534 1535 1536 1537 1538 1538 1539 1540 1541 1541 1541 1542 1543 1543 1544 1545 1545 1546 1546 1547
1486 1493 1501 1509 1517 1530 1522 1526 1519 1506 1497 1492 1491 1493 1495 1498 1501 1505 1508 1512 1515 1518 1520 1523 1525 1527 1529 1531 1532 1533 1535 1536 1537 1537 1538 1539 1540 1540 1541 1541 1542 1542 1543 1543 1544 1545 1545 1546 1546
1488 1507 1527 1530 1538 1534 1520 1522 1514 1491 1487 1486 1487 1488 1491 1495 1498 1502 1505 1508 1511 1515 1518 1521 1523 1526 1528 1530 1531 1533 1534 1535 1536 1537 1538 1538 1539 1540 1540 1541 1541 1542 1542 1543 1543 1544 1545 1545 1545
1491 1500 1525 1536 1539 1533 1521 1521 1502 1485 1483 1482 1483 1485 1489 1492 1495 1498 1501 1505 1508 1512 1515 1518 1521 1524 1526 1528 1530 1532 1533 1534 1535 1536 1537 1538 1539 1540 1540 1541 1541 1541 1542 1542 1543 1543 1544 1544 1544
1491 1499 1500 1519 1527 1532 1526 1513 1495 1483 1482 1482 1482 1484 1486 1488 1492 1495 1499 1502 1506 1510 1513 1516 1519 1522 1525 1527 1529 1530 1532 1533 1534 1536 1537 1538 1538 1539 1540 1540 1541 1541 1541 1542 1542 1542 1543 1543 1543
1481 1491 1508 1520 1534 1536 1524 1517 1508 1489 1485 1482 1482 1482 1484 1487 1490 1493 1497 1500 1504 1508 1511 1514 1517 1520 1523 1525 1527 1529 1531 1532 1533 1534 1536 1537 1538 1538 1539 1540 1540 1540 1541 1541 1541 1541 1541 1542 1542
1487 1494 1504 1516 1518 1531 1533 1517 1486 1483 1480 1480 1479 1480 1481 1484 1487 1491 1494 1498 1502 1506 1509 1512 1515 1518 1521 1523 1526 1528 1529 1531 1532 1533 1534 1535 1536 1537 1538 1539 1539 1539 1540 1540 1540 1540 1540 1540 1540
1477 1486 1498 1510 1518 1521 1524 1511 1476 1476 1476 1476 1477 1479 1480 1483 1485 1489 1493 1496 1500 1503 1506 1509 1513 1516 1519 1522 1524 1526 1527 1529 1530 1531 1533 1534 1535 1536 1537 1538 1538 1538 1539 1539 1539 1539 1539 1539 1539